West Chester Brandywine Airpo, PA

6:55 PM EST on November 19, 2019 (GMT -0500)
West Chester Brandywine Airpo

Weather History for KOQN - September, 2019

Change the Weather History Date:

Friday, September 6, 2019

  Actual Average (KPHL) Record (KPHL)
Temperature  
Mean Temperature 62 °F -  
Max Temperature 66 °F 81 °F 95 °F (1983)
Min Temperature 59 °F 63 °F 48 °F (1962)
Degree Days  
Heating Degree Days 2    
Growing Degree Days 12 (Base 50)    
Moisture  
Dew Point 57 °F    
Average Humidity 80    
Maximum Humidity 94    
Minimum Humidity 73    
Precipitation  
Precipitation 0.00 in - - ()
Sea Level Pressure  
Sea Level Pressure 29.88 in    
Wind  
Wind Speed 6 mph (NE)    
Max Wind Speed 13 mph    
Max Gust Speed 22 mph    
Visibility 9 miles    
Events      
Averages and records for this station are not official NWS values.
T = Trace of Precipitation, MM = Missing Value Source: NWS Daily Summary

Daily Weather History Graph

Daily Weather History Graph

Search for Another Location

Airport or City:

Astronomy

Sep. 06, 2019 Rise Set
Actual Time 6:34 AM EDT 7:26 PM EDT
Civil Twilight 6:07 AM EDT 7:53 PM EDT
Nautical Twilight 5:34 AM EDT 8:26 PM EDT
Astronomical Twilight 5:00 AM EDT 8:59 PM EDT
Moon 2:40 PM EDT (9/6) No Moon Set
Length of Visible Light 13h 46m
Length of Day
12h 51m
First Quarter, 55% of the Moon is Illuminated
Sep 6
First Quarter
Sep 14
Full
Sep 21
Last Quarter
Sep 28
New
Oct 5
First Quarter

Hourly Weather History & Observations

Time (EDT) Temp. Dew Point Humidity Pressure Visibility Wind Dir Wind Speed Gust Speed Precip Events Conditions
12:15 AM 64.4 °F 59.0 °F 83% 30.01 in 10.0 mi East 3.5 mph - N/A   Scattered Clouds
12:35 AM 64.4 °F 59.0 °F 83% 30.01 in 10.0 mi Calm Calm - N/A   Overcast
12:55 AM 66.2 °F 59.0 °F 78% 30.01 in 10.0 mi ENE 3.5 mph - N/A   Overcast
1:15 AM 64.4 °F 59.0 °F 83% 30.00 in 10.0 mi NE 3.5 mph - N/A   Scattered Clouds
1:35 AM 64.4 °F 57.2 °F 77% 30.00 in 10.0 mi ENE 3.5 mph - N/A   Clear
1:55 AM 64.4 °F 57.2 °F 77% 29.99 in 10.0 mi Calm Calm - N/A   Clear
2:15 AM 64.4 °F 57.2 °F 77% 29.99 in 10.0 mi Calm Calm - N/A   Scattered Clouds
2:35 AM 64.4 °F 57.2 °F 77% 29.99 in 10.0 mi NE 3.5 mph - N/A   Overcast
2:55 AM 64.4 °F 57.2 °F 77% 29.98 in 10.0 mi NE 4.6 mph - N/A   Overcast
3:15 AM 64.4 °F 57.2 °F 77% 29.97 in 10.0 mi NE 4.6 mph - N/A   Overcast
3:35 AM 64.4 °F 57.2 °F 77% 29.97 in 10.0 mi NE 6.9 mph - N/A   Overcast
3:55 AM 64.4 °F 57.2 °F 77% 29.96 in 10.0 mi NE 4.6 mph - N/A   Overcast
4:15 AM 64.4 °F 57.2 °F 77% 29.96 in 10.0 mi ENE 5.8 mph - N/A   Overcast
4:35 AM 64.4 °F 59.0 °F 83% 29.96 in 10.0 mi NE 5.8 mph - N/A   Overcast
4:55 AM 64.4 °F 57.2 °F 77% 29.96 in 10.0 mi NNE 6.9 mph - N/A   Overcast
5:15 AM 64.4 °F 59.0 °F 83% 29.95 in 10.0 mi NE 5.8 mph - N/A   Overcast
5:35 AM 62.6 °F 59.0 °F 88% 29.94 in 10.0 mi NNE 8.1 mph - N/A   Overcast
5:55 AM 62.6 °F 59.0 °F 88% 29.95 in 10.0 mi NE 5.8 mph - N/A   Overcast
6:15 AM 62.6 °F 57.2 °F 82% 29.94 in 10.0 mi NE 6.9 mph - N/A   Overcast
6:35 AM 62.6 °F 57.2 °F 82% 29.94 in 10.0 mi NE 5.8 mph - N/A   Overcast
6:55 AM 62.6 °F 57.2 °F 82% 29.94 in 10.0 mi ENE 6.9 mph - N/A   Overcast
7:35 AM 62.6 °F 55.4 °F 77% 29.93 in 10.0 mi NE 8.1 mph - N/A   Scattered Clouds
8:15 AM 64.4 °F 55.4 °F 73% 29.91 in 10.0 mi NE 5.8 mph - N/A   Clear
8:35 AM 64.4 °F 55.4 °F 73% 29.92 in 10.0 mi NNE 6.9 mph - N/A   Scattered Clouds
8:55 AM 64.4 °F 55.4 °F 73% 29.91 in 10.0 mi NE 6.9 mph - N/A   Mostly Cloudy
9:15 AM 64.4 °F 55.4 °F 73% 29.90 in 10.0 mi NE 11.5 mph 17.3 mph N/A   Overcast
9:35 AM 64.4 °F 55.4 °F 73% 29.90 in 10.0 mi NE 9.2 mph 16.1 mph N/A   Scattered Clouds
9:55 AM 64.4 °F 55.4 °F 73% 29.90 in 10.0 mi NE 10.4 mph 16.1 mph N/A   Mostly Cloudy
10:15 AM 64.4 °F 55.4 °F 73% 29.89 in 10.0 mi NE 8.1 mph 16.1 mph N/A   Overcast
10:35 AM 66.2 °F 57.2 °F 73% 29.88 in 10.0 mi NE 12.7 mph 21.9 mph N/A   Mostly Cloudy
10:55 AM 66.2 °F 57.2 °F 73% 29.88 in 10.0 mi NNE 10.4 mph - N/A   Overcast
11:15 AM 66.2 °F 57.2 °F 73% 29.87 in 10.0 mi NE 6.9 mph - N/A   Overcast
11:35 AM 64.4 °F 57.2 °F 77% 29.88 in 10.0 mi NNE 8.1 mph 16.1 mph N/A   Overcast
11:55 AM 66.2 °F 59.0 °F 78% 29.88 in 10.0 mi NE 9.2 mph - N/A   Overcast
12:15 PM 66.2 °F 59.0 °F 78% 29.87 in 10.0 mi ENE 9.2 mph 18.4 mph N/A   Overcast
12:35 PM 66.2 °F 59.0 °F 78% 29.86 in 10.0 mi NE 9.2 mph 17.3 mph N/A   Overcast
12:55 PM 66.2 °F 59.0 °F 78% 29.84 in 10.0 mi NE 8.1 mph - N/A   Overcast
1:15 PM 66.2 °F 59.0 °F 78% 29.84 in 10.0 mi NE 9.2 mph - N/A   Overcast
1:35 PM 64.4 °F 59.0 °F 83% 29.83 in 10.0 mi NNE 6.9 mph - N/A   Overcast
1:55 PM 64.4 °F 59.0 °F 83% 29.83 in 5.0 mi NE 6.9 mph - N/A   Haze
2:15 PM 64.4 °F 59.0 °F 83% 29.82 in 3.0 mi ENE 8.1 mph - N/A   Haze
2:35 PM 62.6 °F 60.8 °F 94% 29.80 in 2.5 mi NE 8.1 mph - N/A   Light Drizzle
2:55 PM 62.6 °F 60.8 °F 94% 29.80 in 3.0 mi NE 6.9 mph - N/A   Overcast
3:15 PM 62.6 °F 60.8 °F 94% 29.79 in 4.0 mi NNE 5.8 mph - N/A   Light Drizzle
3:35 PM 64.4 °F 60.8 °F 88% 29.79 in 10.0 mi ENE 6.9 mph - N/A   Overcast
3:55 PM 64.4 °F 60.8 °F 88% 29.79 in 10.0 mi NE 6.9 mph - N/A   Overcast
4:15 PM 64.4 °F 60.8 °F 88% 29.79 in 7.0 mi NE 6.9 mph - N/A   Overcast
4:35 PM 64.4 °F 59.0 °F 83% 29.79 in 5.0 mi NNE 6.9 mph - N/A   Haze
4:55 PM 64.4 °F 57.2 °F 77% 29.80 in 10.0 mi NE 8.1 mph 17.3 mph N/A   Overcast
5:15 PM 64.4 °F 57.2 °F 77% 29.81 in 10.0 mi NNE 11.5 mph 18.4 mph N/A   Overcast
5:35 PM 62.6 °F 59.0 °F 88% 29.81 in 7.0 mi NE 8.1 mph - N/A   Overcast
5:55 PM 62.6 °F 59.0 °F 88% 29.81 in 10.0 mi NE 8.1 mph - N/A   Overcast
6:15 PM 60.8 °F 57.2 °F 88% 29.81 in 10.0 mi NE 6.9 mph - N/A   Overcast
6:35 PM 60.8 °F 57.2 °F 88% 29.80 in 10.0 mi NE 5.8 mph - N/A   Overcast
6:55 PM 60.8 °F 57.2 °F 88% 29.80 in 10.0 mi NE 8.1 mph - N/A   Overcast
7:15 PM 60.8 °F 55.4 °F 82% 29.80 in 10.0 mi NE 5.8 mph - N/A   Overcast
7:35 PM 60.8 °F 55.4 °F 82% 29.82 in 10.0 mi NNE 6.9 mph - N/A   Overcast
7:55 PM 60.8 °F 55.4 °F 82% 29.83 in 10.0 mi NNE 9.2 mph - N/A   Overcast
8:15 PM 60.8 °F 53.6 °F 77% 29.83 in 10.0 mi NE 9.2 mph - N/A   Overcast
8:35 PM 60.8 °F 53.6 °F 77% 29.82 in 10.0 mi NNE 10.4 mph 17.3 mph N/A   Overcast
8:55 PM 60.8 °F 53.6 °F 77% 29.82 in 10.0 mi NNE 8.1 mph - N/A   Overcast
9:15 PM 59.0 °F 53.6 °F 82% 29.82 in 10.0 mi North 8.1 mph - N/A   Overcast
9:35 PM 59.0 °F 53.6 °F 82% 29.83 in 10.0 mi North 4.6 mph - N/A   Overcast
9:55 PM 60.8 °F 53.6 °F 77% 29.82 in 10.0 mi North 4.6 mph - N/A   Overcast
10:15 PM 60.8 °F 53.6 °F 77% 29.81 in 10.0 mi North 6.9 mph - N/A   Overcast
10:35 PM 60.8 °F 53.6 °F 77% 29.81 in 10.0 mi NNE 4.6 mph - N/A   Mostly Cloudy
10:55 PM 60.8 °F 53.6 °F 77% 29.81 in 10.0 mi NNE 6.9 mph - N/A   Mostly Cloudy
11:15 PM 60.8 °F 53.6 °F 77% 29.80 in 10.0 mi NE 6.9 mph - N/A   Mostly Cloudy
11:35 PM 60.8 °F 53.6 °F 77% 29.80 in 10.0 mi North 5.8 mph - N/A   Scattered Clouds
11:55 PM 59.0 °F 53.6 °F 82% 29.81 in 10.0 mi NNW 4.6 mph - N/A   Clear